TIUNGSAT 1

Satellite information

Favourite Embed

Satellite Type and Status

PAYLOADIN ORBIT

Key statistics

Satellite TIUNGSAT 1 at a glance.

Uptime

8990

Days in orbit

Revolutions

≈ 15.0

Per day

Orbit

LEO

Low Earth Orbit

Inclination

64.5

Latest

Satellite identification and parameters

Extended collection of information and parameters for TIUNGSAT 1.

Object identification

Identified? True

Debris? False

Object name: TIUNGSAT 1

International designator: 2000-057D

Object number (NORAD): 26548

Object ID (CCSDS): 26548

Country: MALAYSIA (MALA)

Current information (Y/N): Y

RCS size: MEDIUM

Orbital parameters

Period: 96.068 minutes

Inclination: 64.5492 deg

SMA: 6948.319 km

Apoapsis: 576.839 km

Periapsis: 563.53 km

RAAN: 334.1353 deg

Eccentricy: 0.0009577

Argument of periapsis: 306.4845 deg

Mean anomaly: 53.5386 deg

Mean motion: 14.98936131 rev/day

Mean motion (dot): 0.00002777 rev/day2

B* drag term: 0.00024218 1/REarth

Two-line elements (TLE)

Creation date: May 8, 2025, 3:01 a.m.

Reference frame: TEME

Reference center: EARTH

Epoch: May 7, 2025, 9:13 p.m. UTC

TLE line 0: 0 TIUNGSAT 1

TLE line 1: 1 26548U 00057D 25127.88471900 .00002777 00000-0 24218-3 0 9994

TLE line 2: 2 26548 64.5492 334.1353 0009577 306.4845 53.5386 14.98936131335429

Live tracking on map

Real-time ground track for satellite TIUNGSAT 1.

In-orbit conjunctions

A list of the most updated potential collisions computed for object TIUNGSAT 1.

Target Orbit TCA Probability of collision Miss distance Type
OBJECT M SSO 2024-07-26 08:55:09 0.0001422485 588.0 (m) UNKNOWN
DELTA 4 DEB SSO 2024-06-18 01:13:43 0.000503975 810.0 (m) DEBRIS

Associated space launch

Four small satellites were launched atop the Dnepr launch vehicle : MegSat 1, UniSat 1, TiungSat 1 as well as SaudiSat 1a and 1b. MegSat 1 is the second MegSat satellite. It is a LEO communications satellite. UniSat 1 is an Italian satellite developed and operated by GAUSS (La Sapienza University of Rome). TiungSAT-1 or MySat (Malaysian Satellite) is the first microsatellite for the Astronautic Technology (M) SDN. BHD. Company (ATSB) in Kuala Lumpur, Malaysia. Saudisat-1a and Saudisat-1b (Saudi Arabian Satellite) are the first Saudi Arabian micro satellites.

TIUNGSAT 1 was lifted into orbit during the mission ‘Dnepr | SmallSat Rideshare’, on board a Dnepr space rocket.

The launch took place on Sept. 26, 2000, 10:05 a.m. from 109/95.

For more information about the launch, click the button.

Launch to space Dnepr | SmallSat Rideshare
Dnepr | SmallSat Rideshare

Agency: N/A

Status: Launch Successful

Launch date: Sept. 26, 2000, 10:05 a.m. UTC

Rocket: Dnepr

Launch pad: 109/95

Location: Baikonur Cosmodrome, Republic of Kazakhstan

...

Latest news about this satellite

There are no fresh news available about this satellite. Check back as we update our databases every day.


Newsletter sign-up

Weekly statistics, charts and insights to help you stay on top of the space industry.